FENGYUN 1C DEB

Satellite information

Favourite Embed

Satellite Type and Status

DEBRISIN ORBIT

Key statistics

Satellite FENGYUN 1C DEB at a glance.

Uptime

9714

Days in orbit

Revolutions

≈ 14.4

Per day

Orbit

SSO

Sun Synchronous Orbit

Inclination

98.9

Latest

Satellite identification and parameters

Extended collection of information and parameters for FENGYUN 1C DEB.

Object identification

Identified? True

Debris? True

Object name: FENGYUN 1C DEB

International designator: 1999-025BKP

Object number (NORAD): 31209

Object ID (CCSDS): 31209

Country: PEOPLES REPUBLIC OF CHINA (PRC)

Current information (Y/N): Y

RCS size: SMALL

Orbital parameters

Period: 99.764 minutes

Inclination: 98.8828 deg

SMA: 7125.414 km

Apoapsis: 762.58 km

Periapsis: 731.978 km

RAAN: 79.0207 deg

Eccentricy: 0.00214737

Argument of periapsis: 353.1421 deg

Mean anomaly: 6.9471 deg

Mean motion: 14.43402924 rev/day

Mean motion (dot): 0.00012883 rev/day2

B* drag term: 0.0038121705 1/REarth

Two-line elements (TLE)

Creation date: Dec. 10, 2025, 10:40 a.m.

Reference frame: TEME

Reference center: EARTH

Epoch: Dec. 10, 2025, 1:20 a.m. UTC

TLE line 0: 0 FENGYUN 1C DEB

TLE line 1: 1 31209U 99025BKP 25344.05618891 .00012883 00000-0 38122-2 0 9996

TLE line 2: 2 31209 98.8828 79.0207 0021474 353.1421 6.9471 14.43402924647694

Live tracking on map

Real-time ground track for satellite FENGYUN 1C DEB.

In-orbit conjunctions

A list of the most updated potential collisions computed for object FENGYUN 1C DEB.

Target Orbit TCA Probability of collision Miss distance Type
IRIDIUM 63 LEO 2025-07-01 04:00:16 0.0006950139 178.0 (m) PAYLOAD
COSMOS 1680 LEO 2025-04-18 13:28:35 0.0002154762 303.0 (m) PAYLOAD
NOAA 16 DEB SSO 2024-11-15 23:06:12 0.0001265903 132.0 (m) DEBRIS
CZ-6A DEB LEO 2024-11-14 06:07:13 0.000106854 549.0 (m) DEBRIS
FENGYUN 1C DEB SSO 2024-11-10 14:51:38 0.0003637798 284.0 (m) DEBRIS

Associated space launch

Chinese polar orbiting meteorological satellite

FENGYUN 1C DEB was lifted into orbit during the mission ‘Long March 4B | Feng Yun 1C’, on board a Long March 4B space rocket.

The launch took place on May 10, 1999, 1:33 a.m. from Launch Complex 7.

For more information about the launch, click the button.

Launch to space Long March 4B | Feng Yun 1C
Long March 4B | Feng Yun 1C

Agency: N/A

Status: Launch Successful

Launch date: May 10, 1999, 1:33 a.m. UTC

Rocket: Long March 4B

Launch pad: Launch Complex 7

Location: Taiyuan Satellite Launch Center, People's Republic of China

...

Latest news about this satellite

There are no fresh news available about this satellite. Check back as we update our databases every day.


Newsletter sign-up

Weekly statistics, charts and insights to help you stay on top of the space industry.